Location: Geroldsau
(48.7259°N, 8.2466°E)
Time: 09:10:24
(UTC+00:00)

Cosmos 540 Rocket - Pass Details

Date: 20 June 2021
Orbit: 739 x 754 km, 74.1° (Epoch: 26 July)

Event Time Altitude Azimuth Distance (km) Brightness Sun altitude
Exits shadow 00:15:11 24° 157° (SSE) 1,493 4.5 -17.1°
Maximum altitude 00:17:40 41° 104° (ESE) 1,074 4.2 -17.0°
Drops below altitude 10° 00:22:26 10° 36° (NE) 2,262 7.0 -16.8°
Sets 00:24:54 0° 29° (NNE) 3,191 8.2 -16.7°
